Location: Newark
(47.5500°N, 8.6167°E)
Time: 15:45:09
(UTC+00:00)

BEESAT 2 - Visible Passes

Search period start: 04 April 2020 00:00
Search period end: 14 April 2020 00:00
Orbit: 494 x 533 km, 64.9° (Epoch: 03 April)

Date Brightness Start Highest point End Pass type
(mag) Time Alt. Az. Time Alt. Az. Time Alt. Az.
04 Apr ? 00:42:08 13° NE 00:42:08 13° NE 00:42:37 10° NE visible
04 Apr ? 02:17:03 23° NNW 02:17:03 23° NNW 02:19:52 10° NNE visible
05 Apr ? 00:25:59 11° NE 00:25:59 11° NE 00:26:12 10° NE visible
05 Apr ? 02:00:54 22° NNW 02:00:54 22° NNW 02:03:27 10° NNE visible
06 Apr ? 01:44:43 21° NNW 01:44:43 21° NNW 01:47:01 10° NNE visible
07 Apr ? 01:28:30 20° NNW 01:28:30 20° NNW 01:30:35 10° NNE visible
08 Apr ? 01:12:15 19° N 01:12:15 19° N 01:14:10 10° NNE visible
09 Apr ? 00:55:58 19° N 00:55:58 19° N 00:57:44 10° NNE visible
10 Apr ? 00:39:39 18° N 00:39:39 18° N 00:41:17 10° NNE visible
11 Apr ? 00:23:17 18° N 00:23:17 18° N 00:24:50 10° NNE visible
12 Apr ? 00:06:52 18° N 00:06:52 18° N 00:08:24 10° NNE visible
12 Apr ? 23:50:24 18° N 23:50:24 18° N 23:51:57 10° NNE visible
13 Apr ? 23:33:51 18° N 23:33:51 18° N 23:35:30 10° NNE visible
